Date,TemperatureHighF,TemperatureAvgF,TemperatureLowF,DewpointHighF,DewpointAvgF,DewpointLowF,HumidityHigh,HumidityAvg,HumidityLow,PressureMaxIn,PressureMinIn,WindSpeedMaxMPH,WindSpeedAvgMPH,GustSpeedMaxMPH,PrecipitationSumIn
2013-8-1,87,74,70,78,72,69,98,93,70,30.01,29.87,3,0,8,0.12
2013-8-2,90,77,66,77,71,66,98,84,59,30.02,29.91,4,1,6,0.00
2013-8-3,90,78,71,80,74,70,98,88,58,30.02,29.90,6,0,8,0.01
2013-8-4,84,75,66,73,69,64,97,83,54,30.03,29.89,8,2,11,0.00
2013-8-5,85,73,62,71,66,61,98,83,56,30.09,30.00,4,0,5,0.00
2013-8-6,82,73,66,73,68,65,97,86,66,30.07,30.00,6,0,8,0.18
2013-8-7,88,76,68,76,71,67,96,85,63,30.11,30.02,2,0,5,0.00
2013-8-8,91,78,68,77,72,68,97,85,58,30.07,29.99,3,0,6,0.00
2013-8-9,91,79,73,78,74,71,97,86,64,30.06,29.98,6,1,10,0.00
2013-8-10,95,79,72,80,74,71,97,88,60,30.10,30.00,12,1,15,0.27
2013-8-11,96,79,70,80,74,69,98,86,56,30.11,30.00,3,0,6,0.00
2013-8-12,93,80,72,78,74,71,97,83,51,30.04,29.93,4,1,8,0.01
2013-8-13,90,77,70,80,74,69,98,90,63,29.96,29.77,4,0,14,0.87
2013-8-14,75,71,64,72,67,58,97,87,76,30.09,29.83,7,2,9,0.00
2013-8-15,76,66,60,64,60,58,96,83,55,30.17,30.07,5,1,9,0.00
2013-8-16,70,64,58,64,61,57,97,89,78,30.18,30.10,4,1,6,0.00
2013-8-17,71,67,63,70,65,61,97,95,91,30.18,30.11,5,2,8,0.20
2013-8-18,82,73,68,73,70,66,98,89,72,30.21,30.12,5,1,8,0.01
2013-8-19,74,70,67,72,68,66,97,95,91,30.19,30.10,4,0,4,0.25
2013-8-20,84,75,69,76,72,68,98,90,69,30.19,30.11,2,0,3,0.00
2013-8-21,88,75,70,78,73,69,98,91,68,30.23,30.10,10,0,17,0.01
2013-8-22,90,78,70,79,73,69,98,86,59,30.15,30.00,4,0,7,0.00
2013-8-23,90,77,67,77,72,66,98,85,57,30.07,29.93,10,1,13,0.00
2013-8-24,83,72,62,66,63,59,95,76,46,30.30,30.07,9,2,11,0.00
2013-8-25,80,67,56,65,60,55,98,79,45,30.40,30.29,8,1,10,0.00
2013-8-26,86,67,51,66,59,50,98,79,43,30.33,30.13,4,0,7,0.00
2013-8-27,90,73,60,76,67,58,96,82,51,30.14,29.97,6,0,7,0.00
2013-8-28,86,76,68,78,73,67,98,90,69,29.99,29.88,2,0,4,0.00
2013-8-29,86,79,72,75,73,70,95,82,64,30.00,29.85,10,2,12,0.00
2013-8-30,90,75,65,70,68,65,98,81,46,30.06,29.95,5,1,8,0.00
2013-8-31,90,75,64,75,70,63,97,85,58,29.98,29.86,4,0,6,0.00